Theta_e
341 330 332 333 316 315 309 311 315 311 309 309 308 308 311 314 313 312 330 327 328 329 329 329 334 334 331 332 331 329 332 329 332 334 332 331 331 331 331 330 329 329 328 330 331 332 331 330 330
329 326 330 324 309 305 308 314 311 312 311 311 309 309 310 313 322 322 324 327 328 328 329 329 332 333 333 332 332 330 330 332 331 332 331 329 329 330 328 330 329 328 328 329 329 330 330 329 329
328 325 320 314 309 305 307 314 314 311 311 308 307 310 311 313 321 321 327 327 327 327 329 330 333 333 331 334 332 330 332 330 330 328 330 330 328 328 329 327 327 328 326 326 327 326 327 327 326
323 322 318 310 306 310 311 315 313 310 310 309 308 306 312 321 321 324 326 326 326 327 328 332 334 332 332 331 331 331 329 330 329 326 326 327 327 328 327 327 326 325 325 324 324 323 324 325 325
324 319 308 306 306 311 315 316 314 311 311 309 307 307 309 319 324 326 324 325 325 325 328 332 334 332 331 330 329 329 328 327 326 325 324 325 325 324 322 322 323 323 321 321 322 322 322 322 323
315 316 304 302 306 312 314 316 314 312 311 309 307 306 312 323 322 325 324 324 325 324 327 331 332 331 333 330 330 329 328 327 325 323 323 323 323 321 319 318 318 318 318 318 318 319 320 320 320
313 311 304 304 305 309 312 316 312 312 310 310 311 305 313 318 323 324 324 325 324 323 325 330 329 329 330 330 329 329 328 325 323 321 320 319 318 317 318 317 316 316 316 317 317 317 320 318 317
318 313 307 307 306 307 314 313 313 312 311 312 313 306 308 318 323 324 324 324 322 322 322 326 330 328 327 328 329 327 328 326 324 321 317 314 314 316 315 313 317 315 315 315 316 317 319 317 314
321 308 304 305 306 309 314 311 312 314 311 310 312 313 316 321 322 321 321 321 320 320 320 324 326 327 327 327 328 328 326 326 324 323 321 316 318 316 314 314 315 318 318 317 316 315 315 313 311
315 308 306 310 312 312 314 313 314 310 311 311 311 315 318 321 320 318 318 317 318 318 319 322 323 326 327 325 327 325 325 323 322 322 321 319 317 315 313 312 315 317 314 315 313 312 313 313 312
315 308 312 311 313 315 314 313 315 311 311 314 313 314 316 319 319 317 317 318 318 320 320 322 323 325 325 323 324 324 323 322 322 321 319 317 315 314 313 313 314 315 314 314 314 314 313 311 311
307 313 313 313 314 314 313 315 312 313 315 318 318 318 317 318 318 317 317 317 318 320 321 322 324 323 323 323 321 321 320 320 318 319 319 317 315 314 313 312 313 313 313 313 313 313 312 312 311
305 308 309 312 313 313 315 312 312 314 317 319 316 316 316 317 319 319 319 319 318 318 321 322 324 323 323 321 321 321 320 319 318 317 317 316 316 315 315 313 313 312 313 312 313 313 312 312 312
307 307 307 309 308 309 308 310 312 313 316 316 317 314 316 317 318 319 318 318 318 319 320 322 322 324 323 322 322 321 321 320 319 318 317 316 316 315 315 314 313 312 313 313 312 312 312 312 312
307 302 305 306 307 306 306 302 304 312 314 313 313 315 315 316 318 318 319 317 318 318 320 321 322 323 322 322 322 323 321 320 320 319 318 316 316 315 314 314 314 314 314 313 313 312 313 313 314
302 304 300 304 304 304 303 298 306 310 310 309 312 311 313 314 315 318 319 319 319 318 318 321 321 322 322 321 321 322 322 321 321 320 319 318 317 317 316 314 314 315 315 314 313 313 313 314 314
302 298 300 301 306 304 303 300 306 309 308 307 309 309 310 311 314 317 319 319 319 319 318 319 321 320 321 321 321 321 322 321 321 321 320 319 318 317 316 315 315 315 315 314 314 313 313 312 314
296 297 299 299 303 303 301 301 305 307 307 307 308 309 309 310 312 316 318 319 320 319 319 319 321 321 321 322 320 320 320 321 321 320 320 320 319 318 317 316 315 315 314 314 314 313 314 314 313
299 298 298 301 304 300 299 300 303 306 306 306 307 308 309 310 312 314 317 318 319 319 318 318 318 320 320 320 319 319 318 319 320 321 321 320 319 318 317 316 315 316 314 314 315 315 313 314 315
299 297 298 300 301 299 300 299 303 303 303 306 307 308 309 310 311 312 314 317 318 318 318 319 318 320 320 321 321 320 319 320 321 322 320 320 319 318 316 316 315 315 315 314 315 314 313 314 314
299 297 297 296 299 302 300 300 301 305 307 306 306 307 309 310 310 311 313 314 317 317 318 318 319 319 319 321 321 321 321 322 320 320 320 320 319 318 317 316 315 316 316 316 317 316 315 313 316
295 299 297 297 296 293 300 293 301 304 304 306 308 309 308 308 310 312 313 313 315 318 321 319 319 318 319 321 319 319 317 316 318 319 320 321 319 318 317 316 315 315 316 315 317 316 316 315 313
297 300 298 298 296 295 296 293 299 303 300 302 305 307 308 309 309 309 311 314 314 318 319 320 321 320 320 320 320 319 318 318 320 320 321 320 321 319 318 317 315 315 316 316 316 315 314 315 314
300 298 299 299 297 291 294 294 295 298 300 302 304 306 307 308 309 310 311 313 315 318 321 321 320 320 321 320 320 320 319 319 319 320 319 320 320 320 318 317 317 317 316 316 316 316 315 314 314
299 296 292 291 292 291 296 294 296 300 301 303 304 305 307 309 309 310 309 310 313 317 320 320 320 319 320 320 320 320 321 321 321 321 320 319 319 318 318 318 317 317 318 317 317 316 315 315 314
297 297 292 286 288 291 295 292 297 302 303 305 306 307 308 308 309 310 311 310 311 313 317 318 318 319 320 320 320 321 321 321 322 322 321 320 320 319 320 318 317 316 317 316 316 316 316 317 316
296 293 297 292 293 290 295 296 300 302 302 304 305 307 308 308 309 309 310 311 310 311 312 315 317 317 319 319 320 320 321 321 321 322 323 322 321 319 319 319 317 316 316 316 316 315 316 316 316
297 299 293 294 287 287 292 293 296 298 301 303 304 305 306 308 308 309 310 311 312 311 312 314 314 315 317 319 320 319 320 320 321 322 322 322 322 321 319 319 318 317 316 316 316 316 317 316 316
295 294 295 295 294 289 289 293 302 302 302 302 304 305 305 306 307 308 310 311 313 313 312 312 312 313 314 316 318 319 319 319 319 320 321 321 322 321 319 318 317 316 315 315 315 316 317 316 316
298 297 297 292 291 292 292 293 302 303 302 304 304 304 305 306 307 308 310 311 311 312 313 312 312 312 314 315 316 317 318 318 318 318 319 320 320 320 319 317 316 315 315 315 315 315 316 316 315
Wind_Speed
15 9 5 5 7 6 10 3 1 3 2 4 2 4 8 6 11 6 10 7 16 15 16 15 12 12 8 10 9 9 10 8 9 11 10 10 11 12 12 12 13 13 12 12 14 15 17 15 16
11 9 5 5 7 9 4 6 2 6 6 4 2 3 4 8 10 11 12 10 16 14 15 15 13 12 10 11 10 8 9 10 10 10 10 9 10 11 11 12 13 13 12 12 13 14 14 15 15
11 7 7 5 10 11 4 4 8 7 6 2 2 3 3 6 6 12 14 16 16 13 13 17 15 13 11 12 11 8 9 8 9 8 9 8 9 10 11 10 10 12 12 11 11 12 12 14 13
5 5 6 9 12 6 6 6 7 8 4 1 2 4 5 7 6 8 16 17 15 13 13 17 15 12 12 9 11 9 8 9 8 7 7 7 8 10 9 10 10 10 10 10 10 10 11 12 13
6 6 9 11 15 2 2 3 6 5 5 5 4 5 3 7 6 14 16 14 14 13 14 14 14 14 13 9 10 11 8 7 7 6 5 7 7 8 7 7 8 7 7 7 8 9 10 10 11
6 5 11 12 13 7 3 5 6 3 4 6 5 2 7 10 10 13 15 14 14 13 14 15 14 12 12 11 10 9 9 9 7 6 5 6 5 6 6 6 6 6 6 6 6 7 8 8 8
9 7 12 13 12 7 7 5 7 5 4 4 3 2 7 11 12 13 14 13 13 13 12 13 14 13 11 12 9 10 10 7 7 6 5 4 4 4 4 4 5 5 5 5 5 6 7 7 7
7 6 14 9 9 9 6 6 2 4 4 4 1 2 6 12 14 13 13 13 12 12 11 11 14 13 12 11 12 9 6 10 8 7 5 5 4 3 2 3 2 3 3 3 4 4 5 5 5
3 7 9 12 11 7 7 8 4 3 4 5 5 3 7 17 15 13 14 13 12 11 12 12 11 13 13 12 11 11 10 8 8 8 7 7 7 7 5 6 2 2 2 2 3 3 4 3 4
7 7 7 5 7 6 3 8 6 6 9 8 8 8 9 16 16 16 16 15 15 14 14 12 11 11 10 8 12 10 10 9 9 9 9 9 5 3 3 2 4 3 3 3 3 4 5 8 2
5 10 6 6 6 6 9 6 7 9 9 9 11 15 13 15 15 16 16 16 16 15 12 13 11 11 11 8 7 6 5 5 5 7 6 5 3 5 6 4 5 6 7 5 7 7 6 3 2
9 10 7 6 3 8 9 7 7 12 12 1 3 6 17 17 17 17 16 16 17 17 15 14 13 11 12 8 7 7 6 6 5 6 7 5 4 4 4 3 2 2 2 2 3 2 2 4 4
12 12 4 7 7 10 11 12 14 15 12 12 5 6 16 16 16 16 15 16 15 17 17 16 14 12 11 11 8 7 7 6 7 7 7 6 5 4 4 3 3 3 2 3 2 3 3 4 3
9 9 11 10 11 11 12 15 17 13 14 17 14 13 14 16 17 15 15 16 17 17 18 17 16 14 12 11 10 8 7 8 7 7 7 9 6 5 4 4 3 3 3 2 3 2 3 3 4
10 12 11 13 14 12 5 17 23 20 18 18 16 16 16 17 16 17 16 17 17 16 17 17 17 16 13 13 10 7 7 7 7 7 9 9 8 6 5 4 4 3 2 2 4 4 3 4 4
10 10 9 7 3 4 6 15 14 6 13 17 17 16 17 19 18 17 16 16 17 17 18 18 15 16 16 13 10 8 8 7 7 7 7 10 8 7 5 4 4 3 2 3 3 3 3 4 4
9 9 4 2 6 2 10 13 11 1 7 12 13 14 15 16 17 17 16 16 16 17 18 18 18 17 17 14 11 10 10 9 8 8 7 9 9 8 7 5 5 5 4 4 3 3 3 4 4
10 9 9 7 4 8 15 23 20 18 18 17 16 15 14 15 18 18 17 16 16 17 17 18 15 17 17 11 11 9 9 9 8 8 8 10 8 10 8 6 6 5 5 4 4 4 4 4 4
8 10 11 11 6 7 14 20 20 18 18 17 17 17 16 15 14 16 17 17 17 17 17 18 18 18 14 11 10 10 10 9 9 8 11 11 10 10 9 7 7 6 6 6 5 4 5 4 3
10 11 12 8 1 9 15 22 18 8 8 12 16 15 16 15 14 16 18 18 19 19 19 18 18 17 15 10 9 9 9 9 8 8 10 12 12 11 10 9 7 8 5 7 6 5 4 3 2
10 9 11 13 14 14 12 6 11 10 9 7 1 8 11 12 15 17 18 19 19 20 20 19 18 18 17 15 9 8 8 7 8 9 8 10 13 12 11 10 9 8 7 5 6 6 6 4 3
12 6 6 10 11 8 10 3 12 10 16 14 12 8 5 6 11 12 15 17 20 18 16 19 18 19 17 17 13 15 10 9 8 9 8 8 13 13 12 12 11 10 7 8 6 7 6 6 5
4 4 8 11 12 11 6 6 12 17 16 18 18 17 14 9 5 9 14 15 18 17 17 17 17 18 17 17 16 13 12 9 8 8 11 11 10 12 12 13 12 11 8 9 9 7 8 6 5
6 10 14 8 7 6 5 4 10 6 11 14 16 18 18 17 14 10 7 13 14 13 15 15 18 17 18 17 18 17 16 13 10 10 8 8 8 8 12 12 11 10 10 10 8 9 9 8 7
8 10 4 6 6 4 3 6 7 9 10 13 15 15 17 17 16 13 11 7 11 12 13 13 16 17 17 17 17 18 16 15 14 12 10 10 9 8 10 12 11 10 10 10 9 9 9 10 8
1 6 6 5 4 5 4 4 8 10 8 5 13 16 15 17 16 15 12 6 8 10 12 14 15 16 17 17 17 16 16 11 11 12 10 9 9 9 11 11 11 12 11 10 10 8 8 9 9
5 4 4 6 4 5 3 5 7 9 8 2 13 16 19 19 17 17 15 12 4 9 12 14 14 15 16 16 14 15 15 16 13 15 12 10 11 9 12 12 13 12 12 12 11 8 10 9 9
6 4 4 5 4 4 6 4 6 13 6 10 13 19 19 18 18 16 15 14 10 4 8 12 15 16 15 15 14 13 15 16 15 13 15 14 12 12 11 13 13 13 13 12 12 10 10 11 8
5 5 5 4 4 4 5 5 7 11 10 12 16 19 18 18 17 16 15 16 14 9 3 7 11 15 15 15 15 16 15 16 15 14 14 14 13 13 13 13 13 14 14 13 13 12 12 13 11
4 7 6 5 4 4 4 4 3 6 4 14 18 17 17 15 15 16 16 16 15 15 13 6 7 11 13 13 14 16 15 16 16 16 16 15 15 14 15 14 15 15 14 14 14 14 12 13 14
Wind_Direction
286 278 297 258 249 225 264 115 36 126 168 60 35 265 1 11 4 36 137 142 132 142 136 157 162 144 138 119 121 119 95 96 89 78 71 70 64 62 58 57 62 58 62 53 52 57 55 58 58
299 290 251 269 254 250 221 109 171 56 77 90 112 194 224 82 71 114 145 155 146 141 146 142 158 138 137 132 131 113 114 98 87 78 80 81 75 69 71 53 67 61 61 59 56 54 54 58 57
269 272 258 228 243 259 329 80 93 100 123 140 161 296 30 75 87 143 109 154 145 146 145 129 160 148 139 141 127 129 113 106 106 93 85 70 78 71 65 67 57 62 61 62 59 57 54 59 55
292 213 243 249 248 237 294 100 115 133 135 142 333 159 121 45 128 121 138 149 145 145 146 144 153 149 141 147 139 124 113 108 93 100 94 93 75 72 65 66 65 60 56 61 64 62 59 56 55
236 267 250 224 247 228 197 62 161 165 120 136 182 101 93 118 110 121 146 153 150 150 141 157 148 164 154 166 157 150 141 132 130 117 103 99 94 85 76 71 67 68 67 64 57 56 56 53 53
251 270 248 237 225 196 220 166 177 198 129 109 184 167 92 116 148 146 153 157 153 152 147 143 153 156 161 160 151 143 147 142 141 134 121 115 97 89 77 71 69 64 63 62 62 55 50 45 42
257 250 257 261 246 181 219 170 194 191 161 166 26 231 92 153 148 152 159 158 157 155 161 151 160 163 172 163 164 164 159 155 155 148 139 141 130 105 70 49 70 66 61 62 58 46 37 35 34
282 276 260 262 245 242 122 189 314 220 133 82 244 202 133 149 153 159 164 162 163 161 171 168 162 167 170 166 167 176 171 164 169 163 160 153 154 148 152 190 82 70 56 37 24 18 19 18 6
266 257 252 232 238 246 106 217 158 38 197 198 167 19 102 135 155 164 169 169 171 170 177 174 174 171 172 167 163 172 182 185 185 184 185 196 215 180 175 96 100 309 354 5 359 0 346 293 244
248 249 270 335 294 284 144 247 189 211 209 200 181 118 140 151 168 174 180 181 181 179 181 179 180 177 170 170 150 191 180 193 197 195 175 223 184 125 330 128 208 232 240 241 242 248 251 249 229
234 260 354 279 262 282 282 255 231 232 235 231 202 175 173 174 182 188 191 192 188 183 184 185 181 181 178 181 174 183 182 199 194 199 204 210 216 182 205 176 188 200 197 220 203 198 225 292 289
269 242 287 283 293 275 265 278 241 237 251 345 252 147 175 188 192 197 197 196 189 186 187 188 182 186 184 184 191 183 189 188 198 197 201 209 209 218 203 212 172 203 199 243 242 270 270 254 233
252 271 293 269 276 264 275 264 269 262 236 251 218 219 186 197 202 202 202 198 194 189 186 188 186 188 189 192 186 192 195 190 196 185 196 210 210 218 197 197 199 208 207 227 256 263 286 273 307
332 292 279 268 262 260 264 269 259 249 249 250 227 223 214 210 208 202 202 200 198 193 188 188 190 193 192 195 191 196 197 190 194 190 195 205 211 211 204 195 205 216 205 238 259 290 291 291 286
276 279 272 246 243 252 278 263 254 254 251 260 241 223 227 220 217 213 202 204 197 195 187 190 190 188 196 198 195 199 197 201 199 200 203 201 207 215 207 221 203 223 200 236 248 257 272 271 272
263 257 268 112 179 181 223 278 281 268 239 242 242 247 223 226 217 214 207 203 198 193 192 188 188 192 195 196 197 196 203 202 209 206 205 205 208 212 223 225 225 216 216 246 271 271 283 276 284
204 296 309 265 188 250 217 285 288 107 269 253 241 238 234 225 215 215 208 199 198 197 191 189 189 196 194 200 198 200 208 203 209 213 208 205 208 212 219 222 223 210 218 223 242 262 262 295 298
334 311 316 296 179 226 272 274 277 271 252 244 249 251 231 228 216 209 205 199 198 196 194 192 188 196 196 192 202 201 205 211 213 212 214 209 208 211 217 222 225 215 216 230 225 251 270 280 294
302 294 291 295 353 303 277 290 293 287 264 250 240 242 239 220 216 206 199 199 198 196 199 193 192 194 194 195 197 203 206 207 212 215 217 215 211 208 211 219 221 211 224 224 229 242 257 261 245
281 283 287 326 50 293 295 301 290 12 333 259 238 235 241 231 207 204 197 199 200 198 195 198 197 194 197 193 197 204 206 209 209 209 212 216 214 211 210 213 219 218 212 222 229 220 247 244 254
270 277 304 312 317 270 312 239 74 96 80 97 220 271 263 247 225 215 200 198 199 204 197 200 198 196 199 198 194 198 209 209 209 206 208 210 214 211 211 214 215 218 216 223 212 215 217 248 181
281 27 308 299 313 321 357 322 74 55 40 39 33 40 35 260 263 262 212 206 204 206 199 198 199 200 199 195 196 198 203 202 205 209 204 205 210 210 210 214 216 222 209 218 219 208 214 216 238
340 332 288 295 286 296 154 246 83 60 58 56 62 60 54 42 2 275 247 210 213 204 203 196 198 200 198 198 200 199 205 205 203 203 201 202 202 210 209 212 215 217 220 218 216 208 208 217 228
325 279 264 254 263 227 95 290 63 47 63 70 56 46 37 36 36 15 288 256 211 202 199 202 197 200 199 198 199 206 202 207 205 203 200 196 203 200 210 208 213 214 216 216 213 214 209 212 215
255 275 271 205 203 37 102 279 62 112 95 63 48 40 29 22 20 22 14 267 236 210 197 203 204 206 200 201 203 208 207 206 214 204 200 199 200 198 201 204 206 212 213 215 210 208 213 214 215
311 321 314 300 328 346 154 220 131 142 121 76 45 36 24 15 15 15 19 11 262 236 207 210 211 213 205 205 206 207 211 211 211 212 203 212 208 201 196 196 203 207 207 208 210 212 210 213 216
122 220 15 291 224 265 148 116 156 191 171 203 33 23 17 13 16 14 18 17 1 244 225 218 220 220 217 213 208 210 209 212 211 214 214 213 212 206 196 196 201 208 209 203 207 213 208 214 212
281 353 231 192 278 270 161 197 151 186 183 45 16 17 9 11 14 14 11 11 16 346 241 223 221 221 220 216 211 214 215 214 215 213 214 211 212 210 202 194 199 205 208 208 205 211 218 208 210
172 220 230 301 270 297 314 81 79 154 83 20 9 10 1 17 8 6 8 5 7 12 321 258 235 231 224 215 211 211 216 218 217 217 216 213 209 206 207 200 202 206 205 207 208 210 214 215 206
314 294 278 259 183 257 308 289 88 92 80 7 11 357 17 8 7 7 2 4 4 358 352 322 255 249 239 234 220 217 214 213 215 217 216 212 210 208 206 204 206 208 208 204 210 210 212 213 211